Wind_Speed
5 6 6 6 6 5 5 4 5 5 5 6 7 7 5 5 5 4 4 3 4 4 4 4 5 9 11 10 11 9 9 10 12 14 12 10 9 7 5 3 2 1 2 3 4 4 4 3 3 2 3 6 6 5 4 3 2 2 3 3 3 3 3 3 3 4 4 5 5 6 7 7 8 8 8 8 9 9 10 10 10 10 11 11 11
6 7 8 8 6 6 6 6 6 5 6 7 8 8 7 5 5 5 5 4 5 5 4 5 7 10 12 12 11 8 7 9 11 12 11 10 8 6 4 2 1 1 1 2 3 4 4 3 3 2 1 5 7 6 5 4 3 2 2 2 3 3 2 2 3 3 3 3 4 4 5 6 6 7 7 7 8 8 9 9 10 10 10 11 11
7 9 10 9 7 7 7 7 6 7 7 7 8 8 7 6 5 5 5 4 5 6 5 5 8 9 9 12 12 8 7 8 9 8 8 9 7 4 3 2 1 1 1 2 3 4 4 3 3 3 1 3 6 6 5 4 3 2 2 2 3 3 3 3 2 2 2 2 2 3 4 4 5 6 6 6 7 7 8 8 9 9 10 10 11
9 10 11 10 8 7 8 8 8 7 7 7 8 7 6 6 5 5 5 4 5 6 5 4 7 9 8 9 10 8 8 9 10 8 7 7 6 4 2 2 1 2 2 2 3 3 3 3 3 3 2 2 4 4 4 4 3 2 1 2 2 3 3 3 3 3 3 2 2 2 2 3 4 4 5 5 6 6 6 7 8 8 9 10 10
10 10 11 9 7 7 7 8 8 7 7 8 7 6 6 6 6 6 5 4 4 5 5 3 4 8 9 9 7 7 8 9 9 8 8 7 5 3 2 3 3 2 2 2 3 3 3 2 2 2 2 4 5 5 3 3 2 2 2 2 2 2 3 3 3 4 4 3 3 2 2 2 2 3 3 4 4 5 5 6 6 8 8 9 9
10 10 9 7 6 7 6 7 8 7 8 8 6 5 6 6 6 6 5 5 5 5 5 3 3 6 8 8 7 6 6 6 5 5 6 5 3 3 4 4 4 3 2 0 3 4 3 2 2 2 3 3 4 6 5 4 3 3 3 3 3 2 2 2 2 3 3 3 3 2 2 1 1 1 2 2 3 3 4 5 5 6 7 8 9
9 8 7 5 5 7 6 6 7 6 6 6 6 5 6 6 6 5 5 6 5 4 4 3 3 4 5 6 7 6 4 3 5 6 4 3 2 3 4 5 4 3 2 1 3 4 4 3 3 3 3 3 4 5 6 5 5 5 5 4 4 3 3 3 3 2 2 2 2 2 2 2 1 1 0 1 1 2 3 4 5 6 6 7 8
7 6 4 4 5 7 6 6 6 6 5 5 6 6 5 6 5 5 5 5 4 3 3 3 3 4 4 5 6 5 2 2 5 5 5 5 4 4 5 5 4 4 2 2 3 5 5 4 4 4 3 3 4 6 7 7 6 6 7 6 6 5 5 4 4 4 4 3 2 1 1 2 2 1 0 0 1 1 2 3 4 5 6 6 7
6 4 3 4 4 6 5 5 6 5 4 5 6 5 5 5 5 5 5 5 4 4 5 4 4 3 3 4 5 3 2 4 4 3 5 6 5 5 6 6 5 5 3 3 3 4 4 4 5 5 4 4 4 5 6 6 6 7 7 7 7 6 6 6 6 5 5 5 5 4 3 1 0 1 1 1 1 1 1 2 3 4 5 5 6
4 3 3 4 4 5 5 4 5 4 4 5 5 6 5 5 5 5 5 5 4 5 5 5 5 4 2 4 5 5 4 5 4 3 6 7 6 7 6 6 5 5 4 3 4 3 4 5 5 5 4 4 4 5 5 6 8 7 7 7 6 6 7 8 8 8 8 8 8 8 8 7 5 3 1 0 1 1 1 2 3 4 4 4 5
4 4 3 3 4 4 4 3 4 4 5 5 5 6 6 6 5 4 4 5 6 6 4 4 5 5 5 5 4 5 4 4 4 3 4 5 6 7 7 7 6 5 4 4 5 4 5 5 4 4 3 4 5 5 5 6 7 5 5 5 3 2 4 6 7 8 10 10 11 11 11 9 8 6 5 3 2 2 2 2 2 3 3 3 3
5 5 5 4 3 3 3 3 3 3 4 5 5 5 5 5 4 4 5 5 6 6 5 4 5 6 7 6 4 4 4 4 4 3 3 3 4 5 7 7 6 5 5 6 7 6 6 5 4 4 4 4 4 4 5 4 4 4 4 4 4 4 2 2 3 4 6 7 9 10 10 9 8 8 6 5 4 3 2 2 2 2 2 2 2
5 4 5 5 4 3 3 3 3 4 4 5 6 5 5 5 5 5 5 5 6 6 6 6 7 8 9 7 6 5 4 3 3 2 3 3 3 4 6 7 6 6 6 7 8 8 7 6 5 5 4 3 2 3 3 3 4 4 4 4 4 5 4 3 2 1 2 3 5 6 6 6 7 7 7 6 6 5 3 3 2 2 1 2 2
4 4 4 5 5 5 5 4 3 4 4 5 5 4 4 4 5 5 4 5 5 6 6 7 8 9 10 10 9 9 7 5 4 3 3 3 3 5 6 6 6 7 7 7 8 8 8 7 6 5 4 3 3 4 4 4 5 5 4 4 4 4 4 3 2 0 1 1 2 2 2 3 4 5 6 6 6 5 4 3 3 3 3 3 3
4 4 4 5 5 5 5 5 5 5 4 3 4 3 3 4 4 4 5 5 6 6 6 7 8 9 9 9 10 13 13 12 9 6 5 4 4 5 6 6 6 7 8 7 7 8 8 7 6 6 6 6 7 8 8 7 7 6 4 3 3 3 3 2 3 1 0 0 0 1 1 2 3 2 3 4 4 4 3 3 3 3 4 4 4
4 2 2 4 5 5 5 4 5 6 5 5 4 3 3 4 4 4 6 7 7 7 7 6 7 8 8 8 10 11 13 15 13 10 8 6 6 6 6 6 6 7 7 6 6 6 6 7 7 6 7 8 9 10 9 9 8 7 5 4 3 3 1 2 3 2 2 2 2 3 3 3 3 3 3 3 2 2 2 2 2 3 3 4 5
7 3 2 4 5 6 6 3 4 5 5 5 6 5 5 4 4 5 7 7 6 6 7 7 6 6 6 7 7 8 13 16 14 12 10 8 9 8 7 8 6 6 6 6 5 5 5 6 6 6 7 8 8 9 8 8 7 7 5 4 3 1 1 2 3 3 3 2 3 3 2 3 4 4 4 5 4 4 3 2 2 3 4 4 4
8 5 4 7 7 7 8 6 4 5 4 5 6 6 5 5 5 5 6 6 5 5 6 7 7 7 6 6 6 8 15 16 12 13 11 9 10 9 8 9 8 7 6 4 4 5 6 5 5 5 5 5 5 6 5 5 5 5 4 3 2 1 1 1 2 3 2 2 2 3 3 4 5 5 5 6 5 5 5 5 3 2 2 2 2
6 4 5 10 10 8 9 8 6 5 4 5 6 6 6 6 6 5 5 5 5 5 6 7 7 7 7 7 8 11 14 13 13 16 14 10 10 11 11 10 10 9 7 6 5 5 7 6 5 4 4 4 4 4 4 2 3 4 3 2 1 1 1 1 2 3 3 2 2 2 3 4 5 6 5 5 5 5 6 7 7 5 4 4 3
7 7 7 9 12 10 9 8 6 4 3 4 5 4 4 6 6 5 6 6 6 5 6 8 7 7 8 8 10 11 11 10 11 13 15 14 12 11 12 12 11 10 9 9 8 7 9 8 7 6 6 5 4 4 4 3 4 4 3 3 2 2 2 2 3 4 4 3 3 2 1 2 3 4 4 4 5 6 7 8 9 8 8 7 7
8 8 7 7 9 12 11 9 6 3 1 2 5 5 4 5 6 6 6 7 7 6 7 9 9 8 8 9 10 10 9 10 10 10 12 15 15 13 14 14 14 13 11 11 11 10 9 8 7 7 7 6 6 5 5 5 5 4 4 3 3 3 4 5 6 7 6 7 6 5 4 4 4 3 2 1 3 5 7 8 9 10 10 10 11
10 8 7 6 7 12 13 10 8 6 2 2 5 6 5 5 6 6 6 7 7 6 6 8 9 9 9 8 8 10 10 12 13 12 12 15 17 17 17 17 17 16 13 12 12 10 7 6 6 6 5 6 7 7 6 6 6 6 5 5 6 6 7 8 9 9 8 8 8 7 6 6 5 5 5 5 3 1 3 5 8 9 10 11 12
13 10 9 7 7 11 14 11 9 7 4 3 5 6 6 6 6 6 6 7 9 9 10 11 12 12 12 10 8 8 10 14 14 13 16 19 22 22 19 18 19 18 16 14 14 12 10 8 6 6 7 7 8 8 8 8 8 8 8 9 9 9 9 9 8 7 6 5 5 5 5 5 4 4 4 4 5 5 4 2 2 3 5 6 6
13 12 11 9 7 8 13 13 10 7 5 4 4 6 6 6 7 7 7 9 12 15 16 16 16 16 16 15 13 11 11 14 14 14 17 21 23 24 22 21 21 19 18 17 15 13 12 11 9 8 9 10 10 10 9 9 9 10 10 10 10 9 8 7 6 5 5 5 5 6 6 6 5 5 4 4 4 3 3 3 3 2 2 2 3
10 14 13 11 8 6 11 14 11 9 7 5 5 6 7 7 8 9 10 12 14 16 17 16 16 17 17 16 16 15 14 15 16 17 19 20 22 23 21 20 21 20 18 16 14 12 11 11 11 10 10 11 11 10 9 9 9 10 9 8 8 8 7 7 6 6 6 7 7 7 8 8 7 7 6 5 4 3 3 3 3 3 3 2 2
9 13 14 12 9 7 10 13 13 11 9 7 6 6 6 7 8 10 11 13 14 15 15 15 15 15 15 14 15 17 17 17 15 16 18 19 20 21 20 20 19 19 17 14 12 9 9 9 8 8 8 9 9 9 8 8 9 9 9 8 8 8 8 8 7 7 7 7 7 7 7 7 7 7 7 7 6 5 4 5 5 5 5 5 5
6 9 10 9 7 9 11 13 14 12 10 8 6 6 7 9 10 11 11 13 14 14 14 14 15 15 14 14 14 16 17 17 15 15 15 16 17 19 22 24 21 18 18 17 12 7 7 7 5 4 5 7 8 8 9 8 8 9 10 9 9 8 8 8 7 7 7 7 7 7 7 7 6 6 6 6 6 6 6 5 6 6 7 7 7
5 6 8 8 8 10 11 12 14 14 11 8 7 9 11 11 12 12 13 14 15 15 15 14 14 15 16 15 15 15 16 17 16 15 14 13 13 16 20 24 25 24 22 18 14 8 4 3 4 4 4 6 9 10 10 9 7 8 9 8 8 8 7 7 7 7 7 7 8 8 8 7 7 7 7 7 6 6 6 6 6 7 7 7 8
4 6 7 9 9 9 9 11 11 12 11 9 8 10 10 10 10 11 12 14 14 14 13 11 11 13 14 15 16 17 17 17 15 13 13 11 10 13 18 20 23 26 24 19 14 11 6 1 2 5 5 7 8 10 10 8 6 6 7 7 7 7 7 6 7 8 9 10 10 10 9 9 8 8 8 8 8 7 7 7 7 7 8 8 9
4 7 8 7 7 8 10 11 11 11 11 11 11 11 11 11 11 12 14 14 14 13 11 10 12 13 14 15 15 16 17 16 13 11 10 10 9 10 13 18 22 21 19 19 15 11 8 4 2 3 5 6 6 8 8 8 6 5 6 7 7 7 7 8 8 9 11 12 12 12 11 10 9 9 9 8 8 8 8 8 8 8 8 9 9
5 8 8 6 7 10 12 12 12 13 14 14 15 15 15 16 16 16 17 16 16 15 13 13 14 14 15 16 14 14 15 14 12 9 7 7 7 7 9 14 20 18 13 14 16 13 9 6 3 2 4 6 6 7 9 8 6 5 7 9 8 6 6 7 8 9 12 14 15 14 12 10 10 9 9 9 9 8 9 9 9 9 10 10 11
6 8 7 7 10 12 12 13 14 15 17 17 17 17 17 18 17 16 15 15 15 14 14 14 13 13 13 14 16 16 15 14 12 10 7 5 6 7 9 13 18 18 11 10 14 16 10 5 3 2 3 4 5 6 8 8 7 5 7 9 8 6 6 9 10 12 15 17 18 16 14 12 11 12 11 11 10 9 9 10 10 11 11 11 12
7 9 8 9 12 13 13 14 15 17 17 17 17 17 16 16 14 13 12 12 11 11 11 11 11 11 10 11 15 17 17 15 13 11 8 7 8 9 11 13 15 13 7 6 11 15 12 8 6 5 4 3 3 3 5 7 7 7 8 9 8 7 9 11 11 13 16 19 19 17 16 14 14 14 13 13 13 12 11 11 10 10 11 12 12
8 10 10 11 13 13 13 14 14 16 16 15 15 14 14 13 12 11 10 9 8 8 8 7 7 8 9 10 11 13 13 13 10 9 10 9 9 10 10 11 12 10 6 6 9 11 11 10 9 8 8 8 5 2 4 7 7 6 7 8 7 5 6 7 9 12 15 18 18 17 17 17 17 16 15 15 15 14 12 11 11 11 10 11 12
9 10 11 11 12 12 12 13 13 14 14 13 12 12 11 11 10 8 7 6 5 5 5 4 4 5 6 7 9 9 9 11 11 11 12 12 9 8 9 8 8 8 6 6 6 7 10 12 11 10 9 7 5 2 3 4 5 4 5 5 3 1 1 3 7 11 16 19 17 16 17 18 19 20 19 19 19 17 15 12 10 10 9 10 12
10 11 10 10 12 12 11 11 11 12 12 11 10 10 10 9 8 6 5 4 5 6 5 4 3 2 3 5 7 8 9 11 13 12 12 13 11 10 10 9 9 7 7 6 4 5 10 12 12 11 8 7 5 2 1 1 2 2 4 3 2 3 1 5 9 12 18 20 17 16 17 18 20 22 23 23 22 20 18 14 11 9 9 9 10
11 12 10 9 11 11 9 9 9 9 10 10 9 9 9 7 6 5 5 5 6 8 7 6 4 3 1 2 3 6 9 12 13 13 12 11 11 11 11 12 13 11 10 10 6 5 7 10 11 11 9 8 5 3 3 2 3 7 8 8 7 6 5 7 11 14 19 21 17 16 18 20 21 23 25 26 25 22 19 16 13 12 12 12 12
11 13 11 9 10 11 10 9 8 8 9 9 8 7 6 5 5 5 5 6 7 8 9 9 8 6 4 3 4 4 6 8 10 12 12 10 9 10 10 12 14 14 14 13 10 8 7 7 9 11 11 9 5 5 6 5 7 8 9 9 10 10 11 12 14 17 22 21 17 17 20 21 21 24 26 28 26 22 18 15 14 13 14 16 16
11 13 11 9 10 12 12 10 9 9 9 7 7 6 6 6 6 6 6 6 7 8 9 10 10 8 6 7 7 7 6 6 7 9 10 10 9 9 10 12 14 14 13 11 10 11 10 8 8 9 10 9 6 7 9 8 8 9 10 11 12 13 14 16 19 22 23 20 18 19 21 21 22 26 27 26 24 21 17 15 14 13 14 16 18
12 13 12 11 11 13 12 10 11 12 11 9 9 8 8 8 8 9 9 8 8 9 9 9 9 8 7 8 9 10 10 9 9 8 9 10 9 9 11 12 13 11 9 9 11 12 12 10 8 6 7 8 9 8 9 9 10 12 13 14 16 17 18 19 21 22 22 21 21 22 22 23 25 26 25 23 21 19 17 14 13 12 13 15 17
12 14 15 14 13 14 14 13 13 14 13 13 13 12 12 12 11 12 12 11 11 11 10 10 10 10 9 9 9 11 11 12 12 11 11 11 11 11 12 12 12 11 9 9 12 14 13 11 9 7 7 8 10 11 12 13 14 15 16 16 17 18 19 21 22 21 22 23 24 25 25 26 26 25 22 21 19 17 15 13 13 14 15 16 18
14 15 15 15 15 15 17 17 16 16 16 16 16 16 16 16 16 16 15 15 14 13 12 11 12 12 12 11 12 13 13 13 13 13 13 13 12 12 13 13 13 12 11 10 11 14 15 13 10 9 10 10 11 13 14 14 15 15 16 16 16 17 19 21 22 22 22 24 26 27 27 25 23 22 21 20 19 17 15 16 17 17 17 17 18
17 17 17 16 17 17 18 19 19 19 18 18 18 18 19 19 19 19 19 17 16 15 15 15 15 15 14 14 14 14 15 16 15 14 13 12 12 12 13 13 12 11 10 9 10 13 15 14 12 11 11 12 12 13 13 13 13 13 14 15 16 18 20 22 23 24 23 24 26 29 29 25 21 20 20 18 17 15 16 18 19 18 19 19 19
19 19 18 19 19 19 20 21 21 22 22 22 21 21 20 20 20 21 21 20 18 18 19 19 18 18 18 18 17 16 18 19 18 16 14 12 12 12 12 12 11 10 10 9 10 11 12 14 14 13 13 13 13 14 14 14 14 14 15 17 19 20 21 22 24 26 25 25 27 29 30 27 22 18 17 15 13 12 13 15 17 18 20 21 21
20 20 20 21 21 22 23 23 23 24 24 24 23 23 22 21 20 21 21 21 21 22 22 21 21 21 21 21 20 19 20 20 19 17 15 12 12 12 12 12 12 11 11 10 10 11 12 13 14 14 15 16 15 15 16 16 16 17 17 19 20 20 21 22 24 26 26 27 28 28 28 26 21 17 15 14 12 12 12 15 17 18 19 20 21
15 16 18 20 21 23 24 25 25 25 25 25 24 24 24 22 20 20 21 21 22 22 22 21 21 22 23 23 21 19 19 19 19 18 15 12 12 13 13 13 12 12 12 12 12 12 13 13 14 14 16 16 16 16 17 17 18 19 19 20 20 21 22 23 24 26 27 27 26 25 24 22 20 18 17 17 17 17 16 17 18 17 18 18 18
9 10 12 14 16 19 21 24 25 25 26 26 26 25 24 23 22 22 23 23 23 22 21 21 21 20 21 21 18 16 16 17 18 17 14 11 11 13 13 13 12 12 12 12 12 12 13 13 14 15 16 16 16 16 17 17 18 18 19 19 21 23 24 24 24 25 25 23 21 21 21 20 20 20 19 19 19 18 17 18 18 19 20 20 17
8 9 10 11 12 14 16 18 21 23 23 23 23 24 24 24 24 24 24 25 24 22 21 20 19 18 17 16 14 14 16 16 16 15 13 11 10 12 12 12 12 11 11 11 11 12 13 14 14 15 15 16 16 16 16 17 17 18 19 20 22 23 23 23 23 23 22 20 19 19 19 19 20 21 21 21 21 21 21 21 22 22 21 19 17
8 9 10 11 12 13 15 16 17 19 20 20 20 21 22 22 23 23 24 24 22 20 19 19 18 16 15 14 14 16 17 16 15 14 12 11 11 11 10 10 9 9 9 10 11 13 14 14 15 15 15 16 16 16 16 16 17 19 20 20 20 20 20 21 22 23 22 20 19 19 18 19 21 23 25 26 26 27 27 26 25 23 20 18 18
7 10 12 12 12 13 14 16 17 17 18 19 19 20 20 20 20 20 21 21 19 18 17 18 17 16 15 15 15 17 17 16 14 13 12 11 11 10 9 9 8 8 9 10 12 13 14 14 15 14 14 14 14 15 16 17 18 18 17 16 16 17 18 20 22 23 23 20 19 20 20 21 24 26 28 31 32 32 30 28 25 23 22 21 20
6 8 12 14 15 14 14 15 16 17 19 19 20 19 19 18 19 19 18 18 17 17 19 18 17 17 16 15 16 17 16 16 15 13 12 12 11 10 9 9 9 9 9 10 10 11 11 12 12 12 12 13 14 16 17 16 14 13 13 13 15 16 18 20 21 22 21 19 20 23 23 24 27 28 30 33 34 34 32 28 26 27 27 26 25
Wind_Direction
215 231 247 245 250 259 245 250 275 286 275 259 252 242 236 233 225 224 220 219 232 223 211 204 196 204 205 214 223 215 209 219 232 236 235 239 239 236 236 234 272 328 357 346 342 352 15 14 4 342 228 218 216 207 206 195 169 143 115 107 104 103 106 105 100 97 96 97 97 95 92 88 84 80 77 76 77 74 72 68 64 64 65 68 69
247 249 249 251 257 263 254 249 265 280 270 253 246 246 248 247 238 238 231 228 240 231 230 231 207 203 209 212 215 223 226 223 235 238 232 233 227 217 209 197 239 300 347 355 347 351 15 15 4 8 240 210 213 211 208 206 201 186 150 132 128 128 128 126 125 121 115 112 107 102 97 93 87 83 79 75 75 72 71 68 64 62 62 66 68
252 251 249 252 258 266 259 244 250 263 262 253 247 248 252 258 257 252 240 232 240 234 241 237 202 193 210 215 209 225 245 227 235 247 238 226 208 194 196 195 236 299 347 21 22 11 19 15 18 24 5 199 203 209 209 211 210 203 191 162 153 155 155 156 155 149 144 136 122 112 103 96 89 85 81 75 71 69 67 66 64 61 59 62 64
249 248 253 255 252 261 259 248 250 255 260 256 251 252 255 260 258 259 253 238 242 239 246 244 206 198 211 224 227 241 243 233 244 249 244 232 199 179 209 236 272 313 352 32 45 42 43 27 28 37 42 149 174 197 214 217 204 180 168 152 153 159 159 167 175 176 169 159 156 141 123 110 98 88 85 79 74 70 66 64 62 60 57 57 59
249 250 260 263 259 261 255 249 252 254 257 254 254 254 252 256 250 253 249 238 253 247 246 263 222 206 212 228 244 248 237 241 252 237 233 240 214 193 235 252 260 289 329 40 63 75 79 62 44 49 90 134 154 170 185 199 185 136 128 124 129 141 148 162 178 188 188 179 178 174 160 140 121 104 93 83 76 69 65 65 61 61 58 55 55
240 245 253 255 264 266 254 247 245 246 254 255 256 248 243 250 245 244 243 234 244 239 241 265 234 208 215 234 245 240 238 248 243 210 217 230 213 200 222 237 238 253 273 13 74 89 99 97 79 72 102 120 145 159 163 177 176 129 122 118 117 123 132 149 163 180 196 194 191 189 185 175 158 132 100 81 68 56 53 54 54 58 58 55 55
224 228 228 218 240 251 247 247 238 236 253 259 263 260 250 251 244 237 239 236 233 233 245 251 236 222 223 239 236 223 237 251 205 185 190 199 199 199 207 221 226 231 238 91 92 103 111 114 111 106 116 110 125 137 132 143 157 143 130 116 113 114 111 120 124 127 146 179 194 200 200 195 191 191 138 69 45 38 33 34 38 41 46 48 50
205 207 211 206 221 233 235 240 237 238 250 252 261 267 261 254 246 235 231 232 230 232 236 217 221 241 234 221 213 216 238 171 170 187 193 189 190 189 199 212 214 206 177 134 119 113 110 115 119 114 123 129 132 137 124 120 131 137 133 116 107 110 110 111 114 115 109 105 112 140 193 210 213 230 246 303 4 22 14 18 24 27 32 36 40
180 180 210 216 220 233 232 229 236 242 245 245 252 257 253 246 236 228 225 224 220 222 224 208 204 229 243 211 185 182 209 166 150 179 176 178 186 182 195 207 202 194 181 174 148 121 117 123 122 114 117 125 125 136 133 122 119 121 125 116 102 101 103 101 98 96 90 85 78 74 75 78 109 251 273 282 297 336 359 10 12 14 18 23 29
144 147 192 200 202 222 225 222 235 239 239 246 249 248 242 234 224 217 218 216 211 215 220 207 194 190 189 194 169 137 154 168 160 157 153 165 178 174 186 193 188 192 194 194 173 142 141 136 125 116 114 116 107 110 121 122 115 109 108 108 97 89 89 87 84 81 77 76 73 68 65 63 64 66 61 22 336 343 357 9 10 8 7 8 16
126 133 157 163 172 202 220 223 234 234 234 237 238 240 233 228 219 205 212 215 214 215 213 205 192 178 167 161 152 143 146 162 173 180 165 170 175 179 193 191 183 191 199 197 187 168 160 151 140 146 140 122 112 112 122 127 126 118 109 115 124 108 84 80 76 70 66 66 67 66 64 63 62 65 65 60 52 26 13 12 14 11 358 356 5
139 141 145 142 152 182 202 206 216 218 224 225 220 222 221 225 220 207 215 219 221 212 192 187 175 163 162 145 120 125 138 157 178 210 214 206 204 207 208 196 187 194 197 195 192 184 180 180 185 192 167 126 116 125 132 135 145 155 146 148 166 173 156 113 84 61 54 54 58 59 57 56 55 55 54 52 50 46 37 20 14 19 11 4 3
141 135 136 138 139 137 148 172 194 192 200 216 215 214 209 214 220 217 216 212 217 206 181 180 177 166 159 146 125 111 118 143 145 165 194 209 217 210 206 197 200 210 198 186 189 192 197 201 213 214 175 130 128 147 145 148 164 175 170 170 183 192 194 168 136 65 48 35 40 46 39 34 39 43 44 44 44 44 47 35 22 24 30 32 21
128 129 123 119 120 120 124 136 161 175 187 207 209 213 206 200 210 215 208 200 201 194 183 181 181 176 164 153 135 111 95 98 112 124 145 169 186 191 200 196 204 213 196 182 189 197 204 209 210 207 189 172 190 189 185 183 180 184 174 169 186 201 199 169 158 267 35 40 36 42 17 359 6 26 34 36 39 41 43 40 32 26 31 41 36
111 129 122 118 124 122 124 131 142 152 162 185 201 221 222 202 200 201 193 190 188 181 180 180 172 165 162 155 140 123 103 98 108 120 127 139 151 167 192 191 185 193 193 190 194 195 199 205 201 202 207 201 196 198 205 209 205 202 185 177 204 227 222 149 119 106 70 58 209 233 256 284 305 333 9 24 31 35 34 29 28 30 36 44 46
109 128 132 139 133 120 121 134 139 142 149 158 167 177 184 188 191 194 191 187 185 177 169 172 166 162 162 150 142 134 117 114 117 119 123 129 134 153 177 176 163 171 183 186 186 187 190 199 202 209 214 204 200 204 213 220 219 213 208 212 233 249 246 105 103 140 199 238 241 237 244 255 264 271 293 313 336 351 355 360 11 29 42 51 51
148 184 201 153 136 119 112 115 128 128 143 151 146 145 142 158 172 183 190 182 179 175 161 162 166 166 164 148 146 137 128 132 127 118 126 133 135 149 160 159 157 157 167 172 169 171 177 190 198 205 212 209 209 211 221 234 223 212 214 213 211 209 103 80 103 165 199 226 243 242 245 257 257 252 260 271 284 299 299 306 332 9 28 40 47
175 202 174 137 134 121 98 80 93 109 121 130 127 135 140 148 155 161 179 173 168 172 160 168 179 176 164 144 141 136 137 144 135 119 124 134 140 144 144 146 148 145 154 158 157 166 169 177 184 189 197 199 202 202 214 234 208 186 189 196 202 185 86 71 113 163 188 209 240 252 244 246 255 255 254 259 268 278 284 292 302 328 358 354 10
157 167 141 133 134 123 102 88 87 92 109 132 133 143 152 155 153 142 155 159 159 168 153 156 171 174 165 141 130 133 142 150 142 129 127 132 145 143 135 135 134 135 139 135 136 152 154 155 162 166 162 157 161 168 174 174 144 147 163 179 190 123 106 128 145 162 169 180 211 244 251 248 259 264 265 268 270 273 276 280 285 283 276 273 283
105 108 112 131 136 129 116 109 103 92 106 154 168 172 158 153 150 138 142 147 150 161 146 135 139 148 156 152 145 143 142 138 139 140 134 133 142 139 130 129 126 125 124 120 122 132 138 137 135 133 131 135 138 140 144 141 131 136 146 141 130 123 126 133 141 148 144 135 151 172 245 260 278 282 275 271 268 269 268 267 272 272 269 273 283
112 107 102 115 135 141 136 126 135 147 113 161 175 176 158 137 133 130 136 137 142 153 141 130 131 132 138 149 156 156 147 136 139 147 136 133 140 140 132 127 118 110 107 109 115 124 132 131 124 122 124 124 121 122 125 128 131 132 133 128 117 114 114 118 122 122 113 100 103 103 89 83 68 51 44 321 272 262 260 256 258 262 262 261 261
134 131 130 119 130 151 151 134 139 162 170 143 148 146 139 126 121 120 121 120 122 126 122 119 120 119 118 127 145 153 152 150 149 145 135 134 137 137 133 126 118 111 104 100 103 108 113 120 124 122 121 116 111 110 113 115 119 117 114 109 105 109 113 115 116 115 109 96 90 86 77 72 65 60 58 51 42 2 276 256 257 263 268 266 261
149 143 142 139 137 150 155 144 138 155 167 137 129 130 135 134 125 121 121 117 112 108 103 101 102 103 101 101 118 138 148 150 150 144 138 135 132 130 129 123 116 111 104 95 92 94 92 92 103 112 112 110 104 102 106 110 112 108 102 99 99 104 109 110 110 105 97 81 64 51 39 33 28 26 26 32 39 42 39 18 297 287 292 292 292
166 162 152 151 156 151 155 155 147 149 145 121 119 130 137 140 137 133 130 124 119 114 108 104 102 101 97 93 96 108 128 140 142 141 139 135 131 129 128 125 121 113 105 99 91 84 79 78 86 98 101 102 101 100 102 105 104 98 93 93 93 93 93 90 83 69 56 42 30 25 21 19 16 9 2 2 8 22 36 40 39 33 18 358 340
165 174 173 173 185 172 159 159 154 147 137 120 124 138 144 144 140 135 131 127 125 122 117 113 110 107 106 100 97 101 112 126 131 133 134 133 131 131 132 131 127 122 115 109 103 92 78 75 83 94 99 101 101 98 98 99 98 94 89 88 88 86 83 75 66 57 48 43 39 37 36 33 30 25 18 11 359 346 337 335 342 344 348 349 343
144 165 176 182 187 167 155 158 157 151 138 131 136 144 149 142 134 132 129 129 130 129 126 122 119 119 117 111 107 108 113 124 131 133 135 133 133 136 142 140 132 128 129 131 127 112 93 85 83 91 103 105 102 101 101 99 100 101 97 93 91 87 83 78 71 65 56 51 47 43 40 36 32 29 25 21 15 3 343 324 317 314 313 314 316
152 156 162 170 160 137 138 147 154 154 145 141 136 129 132 129 127 129 129 133 137 135 131 131 132 134 130 123 119 115 118 128 136 142 141 137 138 144 147 149 148 145 146 148 145 123 94 98 101 91 99 112 111 100 96 96 99 103 98 92 89 85 81 79 73 66 57 49 41 35 31 27 23 19 16 13 12 7 359 345 330 319 312 307 304
176 153 143 147 141 133 133 138 150 156 154 153 134 123 126 125 125 125 123 131 140 138 135 138 140 141 139 135 130 126 128 134 138 142 142 135 145 159 156 153 154 151 148 148 148 145 127 108 121 107 88 111 119 104 93 92 95 101 98 89 82 77 74 71 64 58 51 42 34 26 21 17 14 9 5 0 357 355 352 345 337 329 322 314 308
181 149 138 139 141 144 143 140 147 152 153 154 140 128 125 122 122 121 119 126 137 141 142 140 135 138 145 145 138 132 135 142 139 134 133 125 131 156 165 168 163 153 147 148 150 160 169 144 92 112 97 98 109 103 95 93 94 96 94 87 79 74 70 64 60 56 50 41 31 23 16 11 6 2 358 354 349 346 341 335 330 326 321 317 312
180 153 148 147 142 144 146 143 141 140 138 137 134 131 126 119 114 109 109 114 121 126 127 120 115 121 133 142 144 139 140 147 145 131 128 123 115 129 156 177 179 166 154 152 151 162 172 146 89 102 96 87 87 80 69 68 78 83 78 77 78 81 75 67 67 58 45 37 29 21 15 9 3 356 349 344 338 334 331 328 324 320 316 315 311
175 158 157 150 138 142 145 143 136 130 126 125 127 127 123 117 112 110 109 109 109 107 104 101 103 108 113 118 129 139 144 148 145 131 122 116 113 115 127 160 178 178 170 161 155 161 175 168 135 97 77 76 77 58 32 31 55 70 65 62 64 75 67 51 49 38 27 23 20 17 14 11 5 357 350 342 333 325 320 315 312 311 309 308 307
169 160 159 143 136 140 142 140 135 129 125 124 124 125 122 119 118 117 115 116 114 111 108 107 109 111 106 106 114 124 132 135 127 118 113 101 106 117 116 136 165 174 173 169 157 154 166 187 187 155 89 77 77 53 21 21 46 58 49 42 39 38 22 13 12 10 11 11 10 11 13 13 9 2 356 349 342 332 323 315 307 304 302 300 299
164 156 154 141 136 136 137 139 138 135 133 132 130 129 128 126 123 121 121 123 121 118 116 116 118 119 111 110 117 121 124 128 123 116 120 118 113 120 121 128 147 158 160 169 163 159 165 176 181 179 175 179 156 78 32 30 46 55 50 40 33 25 12 5 2 1 3 3 2 5 8 9 9 7 2 356 350 343 334 327 319 312 306 302 299
164 155 148 142 140 139 141 144 144 143 142 140 137 136 136 133 130 130 130 127 123 121 122 119 119 122 121 124 131 132 132 133 130 128 133 133 125 125 126 129 137 136 129 147 159 165 168 166 166 173 183 200 207 144 57 41 37 47 56 47 39 37 22 6 360 359 357 356 359 3 2 359 358 0 2 358 356 351 342 334 330 325 319 313 307
166 153 147 147 146 145 149 150 150 152 151 149 144 142 145 145 144 145 141 131 126 130 134 132 126 124 127 138 148 153 153 146 141 143 147 149 146 138 133 136 144 142 135 136 141 156 165 162 163 170 181 199 208 148 80 42 19 32 67 54 21 20 75 348 345 351 349 349 356 360 357 352 348 349 352 352 353 353 347 341 337 331 325 320 314
170 154 151 155 155 154 160 163 162 163 163 162 159 155 158 161 161 163 159 156 153 148 150 157 159 134 116 139 155 161 168 167 161 160 161 162 167 169 160 155 159 160 149 135 119 140 160 164 167 172 179 188 190 184 184 102 79 140 144 147 237 255 269 324 333 340 339 341 349 354 351 346 340 341 344 343 345 346 342 340 340 336 329 325 321
171 162 164 172 169 164 171 178 178 179 179 181 182 178 177 177 180 184 180 178 172 164 168 182 202 220 204 167 174 169 175 183 184 182 180 176 180 187 180 168 167 168 153 143 139 152 169 172 172 176 177 178 189 219 233 236 198 199 201 201 217 242 264 296 316 321 323 330 341 345 343 339 334 335 337 335 336 338 336 332 332 332 329 330 331
172 169 177 191 183 174 181 190 193 202 204 202 203 202 199 200 204 206 196 184 181 178 181 190 201 211 216 217 218 200 187 190 197 198 193 188 189 193 189 178 176 171 159 156 154 156 174 179 171 174 176 177 201 210 203 232 245 229 225 227 237 249 257 275 294 301 311 325 335 334 335 335 332 331 330 328 329 332 330 326 326 329 327 327 329
179 176 187 207 197 184 190 196 201 216 228 228 226 218 215 223 222 213 205 198 201 205 203 202 205 209 213 214 215 222 223 209 205 206 198 193 195 196 189 182 180 176 170 174 168 153 160 173 173 181 186 193 218 210 195 216 238 236 239 247 256 262 266 279 291 298 309 323 328 326 329 331 328 326 324 323 325 326 323 319 320 321 322 323 325
187 184 193 210 203 192 197 204 206 218 234 241 231 217 217 226 220 208 213 227 236 234 228 227 230 233 237 233 225 228 234 227 218 211 204 205 211 209 202 194 190 189 191 201 194 174 165 169 179 202 211 208 217 222 220 226 232 236 243 251 259 266 273 285 297 304 311 319 321 321 324 325 323 323 322 322 323 323 318 315 316 318 320 321 322
195 195 200 211 208 199 202 207 208 216 231 235 228 221 225 233 229 219 226 242 248 244 243 249 254 257 260 258 251 247 241 234 228 222 217 221 223 217 214 214 215 220 231 229 211 197 188 182 183 199 211 208 211 221 231 237 241 248 256 261 267 276 286 296 303 306 309 313 315 316 320 324 324 324 324 323 324 325 322 318 318 318 316 314 316
199 204 210 216 215 209 208 212 212 217 227 231 227 226 234 242 240 235 237 243 242 242 247 254 257 259 260 261 263 260 250 240 235 228 223 225 223 216 214 219 224 231 238 236 220 208 203 199 195 200 209 213 212 217 228 238 246 254 263 271 278 286 294 298 300 301 305 310 313 315 319 325 326 324 324 326 330 334 332 326 323 320 315 312 313
204 210 217 221 220 217 217 219 220 222 228 230 231 234 242 248 247 244 246 248 247 249 255 260 264 263 261 263 265 257 245 243 241 230 224 226 226 222 218 220 224 227 228 227 222 216 212 212 214 216 219 221 222 227 238 248 254 262 272 281 287 291 295 298 299 302 308 314 317 317 319 323 325 323 325 332 338 341 337 330 326 322 317 314 311
211 214 220 226 228 228 227 227 228 231 234 238 241 245 249 252 252 253 254 253 253 256 260 264 267 266 266 268 266 252 241 242 241 232 226 230 234 232 226 224 223 222 221 222 222 223 222 223 226 229 231 232 234 240 248 255 263 273 280 285 288 290 294 298 301 305 311 316 318 317 316 318 320 321 325 329 333 339 335 325 317 313 311 309 308
220 224 226 230 235 237 236 235 236 237 240 244 248 250 251 252 255 256 255 253 255 258 261 263 265 267 269 270 263 251 243 239 234 228 225 229 236 235 230 227 224 219 220 223 226 231 235 237 239 240 242 245 248 253 259 265 273 280 283 286 288 291 295 299 303 307 312 316 316 313 311 313 314 313 314 313 310 313 311 304 302 303 305 306 310
225 230 232 235 239 240 241 242 243 245 248 251 253 254 253 253 256 259 259 258 259 261 261 262 263 266 269 267 258 248 241 234 226 223 223 226 231 230 224 221 222 220 220 224 230 237 243 250 253 253 252 255 259 262 265 268 274 280 285 290 294 298 301 305 308 311 314 317 314 308 306 308 306 303 301 298 295 294 292 291 293 296 300 305 310
234 235 236 239 242 243 244 247 249 251 252 253 253 255 254 256 260 264 265 265 265 265 265 266 264 263 263 259 249 237 231 226 221 220 220 221 225 224 219 218 220 222 223 226 232 238 244 250 255 257 258 261 263 265 267 272 279 287 293 298 302 305 307 309 310 312 315 316 312 305 301 301 299 298 296 294 292 290 287 285 287 290 296 300 300
255 253 251 249 249 249 250 251 252 253 253 253 254 253 253 256 260 264 266 266 265 266 267 265 258 250 246 241 231 222 220 219 215 214 213 214 216 215 214 215 219 224 229 233 237 239 242 245 247 251 256 259 263 267 273 282 289 295 299 303 305 306 306 307 308 310 314 318 316 308 303 302 302 300 300 299 297 295 292 290 292 294 297 297 291
280 273 270 265 260 258 257 256 255 253 252 253 255 255 255 256 258 260 261 260 262 262 258 251 243 233 227 224 217 212 210 208 210 213 212 211 213 213 214 218 223 230 234 238 243 245 246 246 247 250 255 261 269 277 285 292 296 299 302 303 303 302 304 306 309 311 315 321 319 312 308 306 304 302 302 303 304 304 303 302 301 300 296 289 282
295 286 281 278 272 268 264 261 261 259 257 256 257 261 263 261 260 259 257 257 258 250 237 229 225 219 217 216 210 205 203 203 206 214 218 218 218 223 230 232 232 234 235 238 243 245 246 249 252 256 262 271 280 289 294 298 298 299 301 300 300 302 303 306 307 308 312 317 311 304 303 302 299 300 302 304 306 308 308 307 306 304 302 295 285
269 279 282 281 279 275 270 266 265 264 263 262 262 264 266 263 261 259 255 253 245 229 217 214 214 215 218 218 210 206 209 209 208 214 224 229 231 236 241 239 232 229 232 237 241 242 246 252 256 263 271 278 285 292 297 298 296 297 298 298 297 297 297 299 301 304 308 309 303 300 300 299 298 299 302 305 308 308 307 306 304 302 301 297 292
Height
1548 1549 1550 1550 1550 1551 1552 1552 1553 1554 1555 1555 1555 1556 1556 1557 1558 1558 1559 1560 1561 1562 1562 1562 1562 1562 1562 1560 1561 1562 1562 1562 1563 1564 1564 1565 1565 1566 1566 1566 1567 1567 1568 1567 1568 1568 1569 1569 1569 1569 1569 1570 1570 1570 1571 1571 1571 1571 1572 1572 1572 1572 1572 1572 1571 1571 1571 1570 1570 1570 1570 1570 1570 1570 1570 1570 1570 1569 1569 1569 1569 1568 1568 1567 1567
1549 1549 1549 1549 1550 1550 1551 1552 1553 1554 1554 1555 1555 1555 1556 1557 1557 1558 1559 1560 1561 1561 1561 1561 1560 1560 1560 1559 1560 1561 1561 1562 1563 1564 1564 1564 1565 1566 1566 1566 1566 1567 1567 1567 1567 1568 1569 1569 1569 1569 1569 1569 1570 1570 1571 1571 1571 1571 1572 1572 1572 1572 1572 1571 1571 1571 1571 1571 1570 1570 1570 1570 1570 1570 1570 1570 1570 1570 1570 1570 1569 1569 1569 1568 1568
1549 1549 1549 1549 1549 1550 1551 1552 1553 1553 1554 1554 1554 1555 1556 1556 1557 1558 1559 1560 1560 1560 1560 1560 1560 1560 1559 1559 1559 1560 1561 1562 1564 1565 1565 1565 1565 1566 1567 1567 1567 1567 1567 1568 1567 1568 1568 1568 1569 1569 1569 1569 1569 1570 1570 1571 1571 1571 1571 1572 1572 1572 1571 1571 1571 1571 1571 1571 1571 1571 1571 1571 1571 1571 1571 1571 1571 1571 1570 1570 1570 1570 1569 1569 1569
1549 1549 1549 1549 1549 1550 1551 1552 1553 1553 1553 1554 1554 1554 1555 1556 1557 1557 1559 1559 1560 1560 1560 1560 1560 1559 1558 1558 1559 1560 1561 1562 1563 1565 1566 1568 1568 1567 1568 1568 1568 1568 1568 1568 1568 1568 1568 1568 1568 1568 1568 1569 1569 1570 1570 1570 1571 1571 1571 1571 1571 1571 1571 1571 1571 1571 1571 1571 1571 1571 1571 1571 1571 1571 1571 1571 1571 1571 1571 1571 1571 1570 1570 1570 1570
1548 1548 1548 1548 1548 1549 1550 1551 1552 1552 1552 1553 1554 1554 1555 1555 1556 1557 1559 1559 1559 1560 1560 1560 1559 1558 1557 1558 1559 1560 1561 1562 1564 1565 1566 1568 1570 1569 1569 1568 1568 1568 1568 1568 1568 1568 1568 1568 1568 1568 1568 1568 1569 1570 1570 1570 1571 1571 1571 1571 1571 1571 1571 1571 1571 1571 1571 1571 1571 1571 1571 1571 1571 1571 1571 1571 1571 1571 1571 1571 1571 1571 1571 1571 1570
1548 1548 1548 1547 1547 1548 1549 1550 1551 1552 1552 1553 1554 1554 1554 1555 1556 1557 1558 1559 1559 1559 1560 1559 1558 1558 1558 1558 1559 1560 1561 1562 1564 1565 1566 1567 1568 1569 1569 1569 1569 1568 1568 1568 1568 1568 1568 1568 1568 1568 1568 1568 1569 1569 1570 1570 1570 1571 1570 1570 1570 1570 1570 1571 1571 1571 1571 1571 1571 1571 1571 1571 1571 1571 1571 1571 1571 1571 1571 1571 1571 1571 1571 1571 1571
1547 1547 1547 1547 1547 1548 1549 1550 1550 1551 1552 1552 1553 1553 1554 1555 1556 1557 1557 1558 1559 1559 1559 1559 1559 1558 1558 1558 1559 1560 1561 1561 1563 1564 1565 1566 1566 1567 1568 1569 1569 1568 1568 1568 1568 1568 1568 1568 1568 1568 1568 1568 1568 1569 1569 1569 1570 1570 1570 1570 1570 1570 1570 1570 1570 1571 1571 1571 1571 1571 1571 1571 1571 1571 1571 1571 1572 1572 1572 1572 1572 1572 1572 1571 1571
1546 1546 1546 1547 1548 1549 1549 1549 1550 1551 1551 1552 1552 1553 1553 1554 1555 1556 1557 1558 1558 1558 1559 1559 1559 1558 1558 1558 1559 1560 1560 1560 1561 1562 1563 1565 1565 1567 1568 1569 1569 1569 1568 1568 1568 1568 1569 1569 1569 1569 1569 1569 1569 1569 1569 1569 1569 1569 1570 1570 1570 1570 1570 1570 1570 1570 1570 1571 1571 1571 1571 1571 1571 1571 1571 1571 1572 1572 1572 1572 1572 1572 1572 1572 1572
1545 1545 1546 1547 1547 1548 1549 1549 1550 1550 1551 1551 1552 1552 1553 1554 1554 1555 1556 1557 1558 1558 1558 1559 1559 1558 1558 1559 1559 1560 1560 1560 1561 1562 1563 1565 1565 1566 1568 1569 1569 1569 1569 1568 1568 1568 1569 1569 1569 1569 1569 1569 1569 1569 1569 1569 1569 1569 1570 1570 1570 1570 1570 1570 1570 1570 1570 1571 1571 1571 1571 1571 1571 1571 1571 1571 1572 1572 1572 1572 1572 1572 1572 1572 1572
1545 1545 1546 1547 1547 1548 1548 1549 1549 1550 1550 1551 1551 1552 1552 1553 1554 1555 1556 1557 1557 1558 1558 1559 1559 1559 1558 1558 1559 1560 1560 1560 1561 1562 1563 1564 1565 1566 1568 1568 1569 1569 1569 1568 1568 1568 1569 1569 1569 1569 1569 1569 1569 1569 1569 1569 1569 1570 1570 1570 1571 1571 1571 1570 1571 1571 1571 1571 1571 1571 1571 1571 1571 1571 1571 1571 1572 1572 1572 1572 1572 1573 1573 1572 1572
1545 1546 1546 1546 1547 1547 1547 1548 1549 1549 1550 1550 1551 1551 1552 1553 1553 1554 1555 1556 1557 1557 1558 1559 1559 1559 1559 1558 1559 1560 1560 1560 1561 1562 1563 1564 1565 1566 1567 1567 1568 1568 1568 1568 1568 1568 1568 1568 1568 1568 1568 1569 1569 1570 1570 1570 1570 1570 1570 1571 1571 1571 1571 1571 1572 1572 1572 1572 1572 1572 1572 1572 1571 1571 1571 1571 1572 1572 1572 1572 1572 1572 1572 1572 1572
1546 1546 1547 1546 1547 1547 1547 1548 1548 1549 1550 1550 1551 1551 1552 1552 1553 1554 1555 1556 1556 1557 1558 1559 1559 1560 1560 1559 1559 1560 1561 1561 1562 1562 1563 1563 1564 1564 1565 1566 1567 1567 1567 1567 1567 1567 1567 1567 1568 1568 1569 1570 1570 1570 1570 1570 1570 1570 1570 1571 1571 1572 1572 1572 1573 1573 1573 1572 1573 1572 1572 1572 1572 1572 1572 1572 1572 1572 1572 1572 1572 1572 1572 1572 1572
1546 1546 1547 1547 1547 1547 1547 1548 1548 1549 1550 1551 1551 1552 1552 1552 1552 1553 1554 1555 1556 1556 1557 1558 1559 1559 1560 1560 1559 1560 1561 1562 1562 1562 1562 1562 1562 1563 1564 1565 1566 1566 1566 1567 1567 1567 1567 1567 1568 1569 1570 1570 1570 1570 1570 1570 1570 1570 1570 1570 1571 1571 1571 1572 1573 1573 1573 1573 1573 1573 1572 1572 1572 1572 1572 1572 1572 1572 1572 1572 1572 1572 1572 1572 1572
1546 1546 1547 1547 1548 1548 1549 1549 1549 1550 1550 1551 1551 1551 1552 1552 1552 1553 1554 1555 1555 1556 1557 1557 1558 1558 1559 1559 1560 1560 1562 1562 1562 1562 1561 1561 1562 1563 1564 1565 1565 1565 1566 1566 1567 1566 1567 1567 1568 1569 1569 1570 1570 1570 1570 1570 1570 1570 1570 1570 1570 1570 1571 1572 1573 1573 1573 1573 1572 1572 1572 1572 1572 1572 1572 1572 1572 1572 1572 1571 1571 1571 1572 1572 1572
1546 1547 1547 1547 1548 1549 1549 1549 1550 1550 1550 1551 1551 1551 1552 1552 1553 1553 1553 1554 1555 1555 1556 1556 1557 1557 1558 1559 1560 1561 1563 1564 1563 1562 1562 1562 1562 1563 1563 1564 1565 1565 1566 1566 1566 1566 1567 1567 1568 1568 1569 1569 1569 1569 1569 1569 1569 1569 1570 1570 1570 1570 1570 1571 1572 1572 1572 1572 1572 1572 1571 1572 1571 1572 1571 1571 1571 1571 1571 1571 1571 1571 1572 1572 1572
1546 1547 1547 1548 1549 1549 1550 1550 1550 1551 1551 1551 1552 1552 1552 1553 1553 1553 1554 1554 1555 1555 1555 1556 1556 1557 1557 1558 1559 1560 1563 1565 1564 1563 1563 1563 1563 1564 1564 1565 1565 1566 1566 1566 1566 1566 1567 1567 1568 1568 1568 1568 1568 1568 1568 1568 1569 1569 1570 1570 1570 1570 1570 1571 1571 1571 1571 1571 1571 1571 1571 1571 1571 1571 1571 1571 1571 1571 1571 1571 1571 1571 1572 1572 1572
1546 1547 1547 1548 1549 1549 1550 1550 1551 1551 1551 1551 1552 1553 1553 1553 1553 1554 1554 1555 1555 1555 1555 1555 1556 1557 1557 1557 1558 1560 1562 1563 1564 1564 1565 1564 1565 1564 1564 1565 1565 1566 1566 1566 1566 1566 1566 1567 1567 1567 1568 1568 1568 1568 1568 1568 1569 1569 1570 1570 1571 1570 1570 1571 1571 1571 1571 1571 1570 1570 1570 1570 1570 1570 1571 1570 1570 1571 1571 1571 1571 1571 1572 1572 1572
1546 1547 1547 1548 1548 1549 1550 1551 1551 1551 1552 1552 1552 1553 1554 1554 1554 1554 1554 1555 1555 1555 1555 1555 1556 1556 1557 1557 1557 1558 1560 1562 1563 1564 1565 1565 1565 1565 1565 1565 1566 1566 1566 1566 1566 1567 1567 1567 1567 1567 1567 1567 1568 1568 1568 1568 1568 1569 1570 1570 1570 1570 1570 1571 1571 1571 1571 1570 1570 1570 1570 1570 1570 1570 1570 1570 1570 1570 1570 1570 1571 1571 1571 1571 1571
1546 1546 1547 1548 1548 1549 1550 1551 1551 1552 1552 1553 1553 1553 1554 1554 1554 1554 1555 1555 1555 1555 1555 1555 1555 1556 1557 1557 1558 1558 1559 1561 1562 1563 1564 1564 1564 1565 1565 1565 1566 1567 1567 1567 1567 1567 1567 1567 1567 1567 1567 1568 1568 1568 1568 1568 1568 1569 1569 1570 1570 1570 1570 1570 1571 1570 1570 1570 1570 1570 1570 1570 1570 1569 1569 1570 1570 1570 1570 1570 1570 1570 1571 1571 1571
1546 1546 1547 1548 1549 1549 1550 1551 1551 1552 1553 1553 1553 1553 1554 1554 1554 1555 1555 1555 1555 1556 1556 1556 1556 1556 1556 1557 1558 1558 1559 1561 1561 1562 1563 1563 1564 1565 1565 1566 1566 1567 1567 1568 1568 1568 1568 1568 1568 1568 1568 1568 1568 1569 1569 1569 1569 1569 1569 1569 1570 1570 1570 1570 1570 1570 1569 1569 1570 1569 1569 1569 1569 1569 1569 1569 1569 1569 1569 1569 1569 1569 1570 1570 1570
1545 1546 1548 1549 1550 1550 1550 1551 1551 1552 1553 1553 1554 1554 1554 1554 1555 1555 1555 1556 1556 1556 1556 1556 1556 1556 1556 1557 1558 1558 1560 1561 1562 1562 1563 1563 1564 1565 1565 1566 1567 1567 1568 1569 1569 1569 1569 1569 1569 1569 1569 1569 1569 1569 1569 1569 1569 1569 1569 1570 1570 1570 1570 1570 1570 1570 1569 1569 1569 1569 1569 1569 1569 1569 1568 1568 1568 1568 1568 1568 1568 1568 1569 1569 1569
1545 1546 1547 1548 1549 1550 1551 1552 1552 1552 1553 1553 1554 1554 1554 1555 1555 1555 1556 1556 1557 1557 1557 1557 1557 1557 1557 1557 1558 1559 1560 1561 1562 1562 1563 1563 1564 1565 1566 1566 1567 1568 1569 1570 1570 1571 1571 1570 1570 1570 1570 1570 1570 1570 1570 1570 1570 1570 1570 1570 1570 1570 1571 1571 1571 1571 1570 1570 1570 1570 1570 1569 1569 1569 1568 1568 1568 1568 1567 1567 1567 1567 1567 1567 1567
1546 1547 1548 1548 1549 1550 1551 1552 1552 1552 1553 1553 1554 1554 1555 1555 1555 1555 1556 1557 1557 1557 1557 1557 1558 1558 1558 1558 1558 1559 1560 1560 1561 1562 1563 1563 1564 1565 1567 1567 1568 1569 1570 1571 1572 1572 1572 1572 1571 1571 1571 1571 1571 1571 1571 1571 1571 1571 1571 1571 1571 1571 1571 1572 1572 1572 1571 1571 1571 1571 1570 1570 1569 1569 1569 1568 1568 1567 1567 1566 1566 1566 1566 1566 1565
1547 1547 1548 1548 1549 1550 1551 1552 1552 1552 1553 1554 1554 1555 1555 1555 1556 1556 1556 1557 1558 1558 1558 1558 1558 1559 1559 1559 1559 1560 1560 1561 1562 1562 1563 1563 1564 1565 1567 1568 1569 1570 1571 1572 1573 1573 1573 1573 1573 1573 1572 1572 1572 1572 1572 1572 1572 1572 1572 1572 1572 1572 1572 1573 1572 1572 1572 1572 1571 1571 1570 1570 1569 1569 1569 1568 1568 1568 1567 1567 1567 1566 1566 1566 1565
1546 1547 1548 1548 1549 1550 1551 1552 1552 1553 1553 1554 1555 1555 1556 1556 1556 1557 1557 1558 1559 1559 1559 1559 1559 1559 1559 1559 1560 1560 1561 1562 1563 1563 1564 1565 1565 1566 1568 1570 1570 1571 1572 1572 1573 1574 1574 1575 1574 1574 1574 1574 1574 1573 1573 1573 1573 1573 1573 1573 1573 1573 1573 1573 1573 1572 1572 1572 1571 1571 1570 1570 1569 1569 1568 1568 1568 1568 1567 1567 1567 1566 1566 1566 1565
1544 1546 1547 1548 1549 1550 1551 1552 1553 1553 1554 1554 1555 1556 1557 1557 1558 1558 1558 1559 1559 1560 1559 1559 1559 1559 1559 1560 1560 1561 1562 1563 1564 1565 1565 1566 1566 1567 1568 1571 1572 1571 1572 1573 1573 1573 1574 1575 1576 1575 1575 1575 1575 1574 1574 1574 1574 1574 1574 1574 1573 1573 1573 1573 1573 1573 1572 1572 1571 1571 1570 1570 1569 1569 1568 1568 1568 1567 1567 1566 1566 1566 1566 1566 1566
1543 1545 1546 1547 1548 1549 1551 1552 1553 1554 1554 1555 1556 1557 1558 1558 1558 1559 1559 1560 1560 1560 1560 1560 1560 1560 1561 1561 1561 1562 1563 1564 1565 1566 1567 1567 1568 1568 1568 1569 1571 1572 1573 1574 1574 1573 1574 1575 1576 1576 1576 1575 1575 1575 1574 1574 1574 1574 1574 1574 1574 1574 1574 1574 1573 1573 1573 1572 1572 1571 1570 1570 1569 1569 1569 1568 1568 1567 1567 1566 1566 1565 1565 1565 1565
1543 1544 1546 1547 1548 1549 1550 1552 1553 1554 1555 1556 1557 1558 1558 1559 1559 1560 1560 1561 1561 1562 1562 1562 1562 1562 1562 1563 1563 1563 1564 1565 1566 1567 1567 1568 1568 1569 1569 1568 1568 1570 1573 1574 1574 1574 1575 1575 1576 1576 1576 1576 1575 1575 1575 1575 1575 1575 1575 1574 1574 1574 1574 1574 1573 1573 1573 1572 1571 1571 1570 1570 1569 1569 1568 1568 1567 1567 1566 1566 1565 1565 1564 1564 1564
1543 1544 1545 1547 1548 1549 1550 1552 1553 1554 1555 1556 1558 1558 1559 1560 1561 1561 1561 1562 1563 1563 1563 1563 1563 1564 1564 1564 1565 1565 1565 1566 1566 1567 1567 1568 1568 1568 1569 1569 1568 1569 1571 1573 1574 1575 1575 1575 1575 1575 1576 1576 1576 1576 1576 1576 1576 1575 1575 1574 1574 1574 1574 1573 1573 1573 1573 1572 1571 1571 1570 1569 1569 1568 1568 1567 1566 1566 1565 1565 1564 1564 1564 1563 1563
1543 1544 1545 1546 1548 1549 1550 1552 1553 1554 1555 1557 1558 1559 1560 1561 1562 1562 1563 1564 1564 1565 1565 1565 1565 1565 1565 1565 1566 1566 1567 1567 1567 1568 1568 1568 1568 1568 1568 1569 1569 1569 1569 1571 1573 1574 1574 1575 1575 1575 1575 1575 1575 1575 1575 1576 1576 1575 1575 1574 1574 1574 1574 1574 1573 1573 1572 1572 1571 1570 1569 1569 1568 1567 1567 1566 1566 1565 1565 1564 1564 1563 1563 1562 1562
1543 1544 1545 1546 1548 1549 1550 1552 1553 1554 1556 1557 1558 1559 1561 1562 1563 1564 1564 1565 1565 1566 1566 1566 1567 1567 1566 1566 1567 1567 1567 1568 1568 1568 1568 1568 1568 1568 1568 1568 1569 1570 1570 1570 1571 1573 1574 1574 1574 1574 1575 1575 1575 1575 1575 1575 1575 1575 1574 1574 1574 1574 1574 1573 1573 1572 1572 1571 1570 1570 1569 1568 1567 1566 1566 1565 1564 1564 1564 1563 1563 1562 1562 1562 1561
1543 1544 1545 1546 1548 1549 1551 1552 1553 1554 1556 1557 1559 1560 1561 1562 1564 1565 1565 1566 1566 1566 1567 1567 1568 1568 1568 1568 1568 1568 1568 1569 1569 1568 1568 1568 1568 1568 1568 1569 1570 1570 1571 1571 1571 1573 1574 1574 1574 1574 1574 1574 1574 1575 1575 1574 1575 1574 1574 1573 1573 1573 1573 1572 1572 1571 1571 1570 1570 1569 1568 1567 1567 1566 1565 1564 1564 1563 1563 1562 1561 1561 1561 1560 1560
1543 1544 1545 1547 1548 1550 1551 1552 1554 1555 1556 1558 1559 1560 1562 1563 1564 1565 1566 1566 1567 1567 1567 1567 1568 1568 1569 1569 1569 1569 1569 1570 1569 1569 1569 1569 1569 1569 1569 1570 1571 1572 1572 1572 1572 1573 1574 1575 1574 1574 1574 1574 1575 1576 1576 1575 1574 1574 1573 1573 1573 1573 1573 1572 1571 1571 1570 1570 1569 1568 1567 1567 1566 1566 1565 1564 1563 1562 1562 1561 1560 1560 1559 1559 1559
1543 1544 1545 1547 1548 1550 1551 1553 1554 1556 1557 1558 1559 1561 1562 1563 1564 1565 1566 1567 1567 1567 1567 1567 1567 1568 1568 1569 1569 1570 1570 1570 1570 1569 1569 1569 1570 1570 1570 1571 1571 1572 1572 1572 1573 1573 1573 1574 1575 1574 1574 1575 1575 1575 1575 1575 1574 1573 1573 1572 1572 1572 1572 1571 1571 1570 1570 1569 1568 1567 1567 1566 1565 1565 1564 1564 1563 1562 1561 1560 1559 1559 1558 1558 1557
1543 1545 1546 1547 1549 1550 1551 1553 1554 1556 1557 1558 1560 1561 1562 1564 1565 1566 1567 1567 1567 1567 1567 1566 1567 1567 1567 1568 1569 1569 1570 1570 1570 1569 1569 1569 1570 1570 1570 1571 1571 1571 1572 1572 1572 1573 1573 1573 1574 1574 1574 1574 1575 1575 1575 1575 1574 1573 1573 1572 1571 1571 1571 1570 1570 1570 1569 1568 1568 1567 1566 1565 1564 1563 1563 1563 1562 1561 1560 1559 1558 1558 1557 1556 1556
1544 1545 1546 1547 1549 1550 1551 1553 1554 1556 1557 1558 1559 1561 1562 1564 1565 1566 1566 1567 1567 1566 1566 1566 1566 1566 1566 1567 1568 1568 1569 1569 1569 1568 1568 1569 1569 1569 1570 1570 1570 1570 1571 1572 1572 1572 1572 1573 1574 1574 1574 1574 1574 1574 1574 1575 1574 1573 1573 1572 1571 1570 1570 1569 1569 1569 1568 1568 1567 1566 1565 1564 1563 1562 1562 1561 1560 1560 1559 1558 1557 1556 1556 1555 1554
1544 1545 1546 1548 1549 1550 1551 1552 1554 1555 1556 1558 1559 1560 1561 1563 1564 1565 1565 1566 1566 1565 1565 1565 1565 1565 1565 1566 1566 1567 1567 1568 1567 1567 1567 1567 1568 1568 1569 1569 1570 1570 1570 1571 1571 1572 1572 1572 1573 1574 1574 1574 1574 1574 1574 1574 1573 1573 1572 1572 1572 1571 1570 1569 1569 1568 1568 1567 1566 1565 1564 1563 1562 1561 1560 1560 1559 1558 1557 1556 1555 1555 1554 1554 1553
1545 1545 1547 1548 1549 1550 1551 1552 1553 1554 1555 1557 1558 1559 1561 1562 1562 1563 1564 1564 1564 1564 1564 1564 1564 1564 1564 1564 1564 1565 1566 1566 1566 1566 1566 1567 1567 1567 1568 1569 1569 1569 1570 1570 1570 1571 1572 1572 1573 1573 1574 1574 1574 1574 1574 1573 1572 1572 1572 1572 1572 1571 1570 1570 1569 1568 1567 1566 1565 1565 1564 1563 1561 1560 1559 1558 1557 1556 1556 1554 1553 1553 1552 1552 1551
1545 1546 1546 1547 1548 1549 1550 1552 1553 1553 1554 1556 1557 1558 1560 1561 1561 1562 1562 1563 1563 1563 1563 1563 1563 1563 1564 1563 1563 1563 1564 1564 1565 1565 1566 1566 1567 1567 1568 1568 1569 1569 1570 1570 1570 1570 1571 1571 1572 1572 1573 1573 1573 1573 1573 1572 1572 1571 1571 1571 1571 1570 1570 1569 1568 1567 1566 1565 1564 1564 1563 1562 1561 1559 1558 1557 1556 1555 1554 1553 1552 1551 1550 1550 1549
1545 1546 1546 1547 1548 1549 1550 1551 1552 1552 1553 1555 1556 1557 1558 1559 1560 1560 1560 1561 1562 1562 1562 1562 1561 1562 1562 1562 1562 1562 1562 1562 1563 1563 1564 1564 1565 1566 1566 1567 1568 1569 1569 1569 1569 1569 1569 1569 1570 1571 1571 1572 1572 1571 1571 1571 1571 1570 1570 1570 1569 1569 1568 1568 1567 1565 1564 1563 1563 1562 1561 1560 1559 1558 1556 1555 1554 1553 1552 1551 1550 1549 1548 1548 1547
1545 1546 1546 1547 1547 1548 1549 1550 1551 1552 1553 1553 1554 1556 1557 1557 1558 1558 1558 1559 1560 1560 1560 1560 1560 1560 1560 1561 1560 1560 1560 1560 1560 1561 1562 1563 1563 1563 1564 1565 1566 1567 1568 1568 1568 1568 1568 1567 1568 1569 1569 1570 1570 1570 1570 1569 1569 1569 1568 1568 1568 1567 1566 1566 1565 1564 1562 1562 1561 1560 1559 1558 1556 1555 1554 1553 1552 1551 1550 1549 1548 1547 1547 1546 1545
1544 1545 1545 1546 1546 1547 1548 1548 1550 1551 1552 1553 1553 1554 1555 1555 1556 1556 1556 1557 1557 1558 1558 1558 1558 1558 1558 1558 1558 1558 1558 1557 1558 1558 1559 1560 1561 1562 1562 1563 1564 1565 1566 1566 1566 1566 1566 1566 1566 1567 1567 1567 1568 1568 1568 1568 1567 1567 1567 1566 1566 1565 1564 1563 1563 1562 1561 1560 1558 1557 1557 1556 1554 1553 1552 1551 1549 1549 1548 1547 1546 1545 1544 1544 1543
1543 1544 1544 1545 1545 1546 1546 1547 1548 1549 1550 1551 1552 1553 1553 1553 1554 1554 1554 1555 1555 1555 1556 1556 1556 1556 1556 1556 1555 1555 1555 1555 1555 1556 1556 1558 1559 1560 1560 1561 1562 1563 1564 1564 1565 1565 1565 1565 1565 1565 1565 1565 1566 1566 1566 1565 1565 1565 1565 1564 1564 1563 1562 1561 1560 1559 1559 1558 1555 1554 1553 1553 1552 1551 1550 1549 1548 1547 1546 1545 1544 1543 1542 1541 1540
1542 1543 1543 1544 1544 1545 1545 1546 1547 1548 1549 1550 1550 1551 1551 1551 1551 1551 1552 1552 1552 1552 1553 1553 1553 1553 1553 1553 1552 1552 1553 1553 1553 1553 1554 1555 1556 1557 1558 1559 1560 1561 1561 1562 1563 1564 1564 1564 1564 1564 1564 1564 1564 1564 1564 1564 1564 1564 1563 1562 1562 1561 1560 1559 1557 1557 1556 1555 1553 1551 1550 1550 1550 1548 1547 1547 1546 1545 1545 1544 1542 1541 1540 1539 1538
1542 1542 1542 1543 1543 1543 1544 1544 1545 1546 1547 1548 1548 1548 1549 1549 1549 1549 1549 1550 1549 1550 1550 1550 1550 1549 1549 1549 1549 1549 1550 1550 1551 1551 1552 1552 1553 1554 1555 1556 1557 1558 1559 1560 1560 1561 1562 1562 1563 1563 1563 1562 1563 1563 1563 1562 1562 1562 1561 1560 1560 1558 1558 1557 1555 1554 1554 1553 1550 1548 1547 1547 1547 1545 1545 1545 1544 1543 1542 1541 1540 1539 1538 1537 1536
1540 1540 1541 1541 1541 1541 1542 1542 1543 1543 1544 1545 1545 1546 1546 1546 1547 1546 1547 1547 1547 1547 1547 1547 1547 1547 1546 1546 1546 1546 1547 1547 1548 1549 1549 1550 1551 1552 1553 1554 1555 1556 1557 1557 1558 1559 1559 1560 1561 1561 1561 1561 1561 1561 1561 1560 1560 1559 1559 1558 1557 1556 1554 1554 1552 1551 1551 1550 1548 1545 1544 1544 1544 1543 1542 1542 1541 1540 1540 1539 1538 1537 1536 1534 1533
1538 1539 1539 1539 1539 1539 1539 1540 1540 1541 1541 1542 1543 1543 1543 1543 1544 1544 1544 1544 1544 1544 1544 1544 1544 1543 1543 1542 1542 1543 1544 1545 1546 1547 1548 1548 1548 1549 1550 1551 1553 1554 1555 1555 1556 1557 1558 1558 1558 1559 1559 1559 1559 1559 1558 1558 1557 1557 1556 1555 1554 1552 1551 1550 1549 1549 1548 1548 1546 1543 1542 1541 1541 1540 1540 1539 1538 1538 1537 1537 1536 1535 1533 1532 1530
1537 1537 1538 1538 1537 1537 1537 1537 1537 1537 1538 1539 1539 1540 1540 1541 1541 1541 1541 1541 1541 1541 1541 1540 1540 1540 1540 1539 1540 1541 1542 1543 1545 1545 1546 1546 1547 1547 1548 1549 1550 1551 1552 1553 1554 1555 1556 1556 1556 1557 1557 1557 1557 1557 1556 1556 1555 1554 1553 1553 1551 1550 1548 1547 1546 1546 1546 1545 1544 1541 1540 1539 1538 1537 1536 1536 1535 1535 1535 1534 1533 1532 1531 1529 1527
1536 1536 1536 1536 1536 1536 1536 1535 1535 1535 1535 1536 1536 1537 1537 1537 1538 1538 1538 1538 1538 1538 1538 1537 1537 1537 1537 1537 1538 1539 1540 1542 1543 1543 1544 1545 1546 1546 1546 1547 1548 1549 1550 1551 1552 1553 1553 1554 1554 1555 1555 1555 1555 1555 1554 1554 1553 1552 1551 1550 1549 1547 1546 1545 1544 1543 1543 1543 1541 1539 1537 1537 1535 1534 1533 1532 1532 1531 1530 1529 1528 1527 1526 1525 1524
1535 1535 1535 1535 1535 1535 1534 1534 1533 1533 1533 1533 1534 1534 1534 1534 1534 1534 1535 1535 1535 1535 1535 1534 1534 1535 1535 1536 1537 1538 1539 1540 1541 1542 1542 1543 1544 1545 1545 1546 1547 1548 1549 1549 1550 1551 1551 1552 1552 1553 1553 1553 1553 1553 1552 1551 1551 1550 1549 1548 1546 1545 1544 1543 1542 1541 1541 1541 1538 1536 1535 1534 1533 1531 1529 1528 1528 1528 1527 1525 1524 1523 1522 1521 1520
1532 1533 1533 1533 1533 1533 1533 1532 1532 1531 1531 1531 1531 1531 1531 1531 1531 1531 1532 1532 1532 1532 1532 1532 1532 1533 1534 1535 1536 1537 1538 1539 1539 1540 1541 1542 1543 1543 1544 1545 1546 1546 1547 1547 1548 1549 1550 1550 1551 1551 1551 1551 1551 1550 1550 1549 1548 1548 1547 1545 1544 1543 1542 1541 1540 1539 1539 1538 1536 1534 1533 1532 1530 1529 1527 1525 1523 1522 1522 1522 1521 1520 1519 1518 1517